Salzburg Flughafen, Austria

10:49 PM CEST on June 22, 2017 (GMT +0200)
Salzburg Flughafen

Weather History for LOWS - April, 2013

Change the Weather History Date:

Wednesday, April 3, 2013

  Actual Average Record
Temperature  
Mean Temperature 36 °F -  
Max Temperature 40 °F 56 °F 75 °F (2016)
Min Temperature 32 °F 38 °F 32 °F (2013)
Degree Days  
Heating Degree Days 29    
Moisture  
Dew Point 30 °F    
Average Humidity 76    
Maximum Humidity 87    
Minimum Humidity 59    
Precipitation  
Precipitation 0.00 in 0.12 in - ()
Sea Level Pressure  
Sea Level Pressure 29.84 in    
Wind  
Wind Speed 6 mph ()    
Max Wind Speed 10 mph    
Max Gust Speed -    
Visibility 5.3 miles    
Events Rain , Snow    
Averages and records for this station are not official NWS values.
T = Trace of Precipitation, MM = Missing Value Source: Averaged Metar Reports

Daily Weather History Graph

Daily Weather History Graph

Search for Another Location

Airport or City:

Trip Planner

Search our weather history database for the weather conditions in past years. The results will help you decide how hot, cold, wet, or windy it might be!

Date:

Astronomy

Apr. 03, 2013 Rise Set
Actual Time 6:42 AM CEST 7:40 PM CEST
Civil Twilight 6:11 AM CEST 8:12 PM CEST
Nautical Twilight 5:33 AM CEST 8:50 PM CEST
Astronomical Twilight 4:53 AM CEST 9:30 PM CEST
Moon 2:37 AM CEST (4/3) 12:06 PM CEST (4/3)
Length of Visible Light 14h 01m
Length of Day
12h 58m
Waning Gibbous, 47% of the Moon is Illuminated
Apr 3
Waning Gibbous
Apr 10
New
Apr 18
First Quarter
Apr 25
Full
May 2
Last Quarter

Hourly Weather History & Observations

Time (CEST) Temp. Windchill Dew Point Humidity Pressure Visibility Wind Dir Wind Speed Gust Speed Precip Events Conditions
12:20 AM 33.8 °F 25.8 °F 30.2 °F 87% 29.80 in 5.6 mi NE 10.4 mph - N/A   Overcast
12:50 AM 33.8 °F 26.4 °F 30.2 °F 87% 29.80 in 5.6 mi NE 9.2 mph - N/A   Overcast
1:20 AM 33.8 °F 27.0 °F 30.2 °F 87% 29.80 in 5.0 mi NE 8.1 mph - N/A   Overcast
1:50 AM 33.8 °F 27.0 °F 30.2 °F 87% 29.80 in 5.0 mi NE 8.1 mph - N/A   Overcast
2:00 AM 34 °F - 30 °F 80% 29.87 in 5 mi NE 8.9 mph - -  
2:20 AM 33.8 °F 28.6 °F 30.2 °F 87% 29.80 in 5.0 mi NE 5.8 mph - N/A   Overcast
2:50 AM 33.8 °F 29.6 °F 30.2 °F 87% 29.80 in 5.0 mi North 4.6 mph - N/A Rain Light Rain
3:20 AM 33.8 °F 30.8 °F 30.2 °F 87% 29.80 in 5.0 mi North 3.5 mph - N/A Snow Light Snow
3:50 AM 33.8 °F 29.6 °F 30.2 °F 87% 29.80 in 5.0 mi NNW 4.6 mph - N/A Snow Light Snow
4:20 AM 33.8 °F 28.6 °F 30.2 °F 87% 29.83 in 5.0 mi NNW 5.8 mph - N/A Snow Light Snow
4:50 AM 33.8 °F 30.8 °F 30.2 °F 87% 29.83 in 4.3 mi North 3.5 mph - N/A Snow Light Snow
5:00 AM 33 °F - 30 °F 82% 29.89 in 4 mi North 4.5 mph - - Snow Light Snow
5:20 AM 33.8 °F 30.8 °F 30.2 °F 87% 29.83 in 4.3 mi NNW 3.5 mph - N/A Snow Light Snow
5:50 AM 33.8 °F 29.6 °F 30.2 °F 87% 29.83 in 5.0 mi NNE 4.6 mph - N/A Snow Light Snow
6:20 AM 33.8 °F 29.6 °F 30.2 °F 87% 29.83 in 3.1 mi NNE 4.6 mph - N/A Snow Light Snow
6:50 AM 33.8 °F 30.8 °F 28.4 °F 81% 29.83 in 3.1 mi North 3.5 mph - N/A Snow Light Snow
7:20 AM 33.8 °F 29.6 °F 28.4 °F 81% 29.83 in 3.1 mi NE 4.6 mph - N/A Snow Light Snow
7:50 AM 33.8 °F 30.8 °F 28.4 °F 81% 29.83 in 3.7 mi NNE 3.5 mph - N/A Snow Light Snow
8:00 AM 33 °F - 29 °F 80% 29.91 in 4 mi NNE 4.5 mph - - Rain Light Rain
8:20 AM 33.8 °F 30.8 °F 28.4 °F 81% 29.83 in 3.7 mi North 3.5 mph - N/A Snow Light Snow
8:50 AM 33.8 °F 28.6 °F 28.4 °F 81% 29.83 in 3.7 mi NE 5.8 mph - N/A Snow Light Snow
9:20 AM 33.8 °F 27.7 °F 28.4 °F 81% 29.86 in 3.7 mi NE 6.9 mph - N/A Snow Light Snow
9:50 AM 33.8 °F 28.6 °F 28.4 °F 81% 29.86 in 3.7 mi NE 5.8 mph - N/A Snow Light Snow
10:20 AM 35.6 °F 30.7 °F 30.2 °F 81% 29.86 in 3.7 mi NE 5.8 mph - N/A Snow Light Snow
10:50 AM 35.6 °F 30.7 °F 30.2 °F 81% 29.86 in 4.3 mi NE 5.8 mph - N/A Snow Light Snow
11:00 AM 35 °F - 30 °F 74% 29.93 in 4 mi NE 6.7 mph - - Rain Light Rain
11:20 AM 37.4 °F 33.8 °F 30.2 °F 75% 29.86 in 4.3 mi North 4.6 mph - N/A Snow Light Snow
11:50 AM 37.4 °F 32.1 °F 30.2 °F 75% 29.86 in 4.3 mi North 6.9 mph - N/A Snow Light Snow
12:20 PM 37.4 °F 34.9 °F 30.2 °F 75% 29.86 in 4.3 mi NNE 3.5 mph - N/A Snow Light Snow
12:50 PM 37.4 °F 33.8 °F 30.2 °F 75% 29.86 in 6.2 mi NE 4.6 mph - N/A Snow Light Snow
1:20 PM 39.2 °F 35.9 °F 28.4 °F 65% 29.83 in 6.2 mi NNW 4.6 mph - N/A   Mostly Cloudy
1:50 PM 39.2 °F 35.9 °F 30.2 °F 70% 29.83 in 6.2 mi NNW 4.6 mph - N/A   Mostly Cloudy
2:00 PM 39 °F - 30 °F 59% 29.89 in 6 mi NNW 4.5 mph - -   Partly Cloudy
2:20 PM 39.2 °F 35.9 °F 30.2 °F 70% 29.83 in 6.2 mi NW 4.6 mph - N/A   Mostly Cloudy
2:50 PM 41.0 °F 38.0 °F 30.2 °F 65% 29.83 in 6.2 mi North 4.6 mph - N/A   Mostly Cloudy
3:20 PM 41.0 °F 38.0 °F 30.2 °F 65% 29.83 in 6.2 mi North 4.6 mph - N/A   Mostly Cloudy
3:50 PM 41.0 °F 39.0 °F 30.2 °F 65% 29.83 in 6.2 mi NNW 3.5 mph - N/A   Mostly Cloudy
4:20 PM 41.0 °F 38.0 °F 30.2 °F 65% 29.83 in 6.2 mi North 4.6 mph - N/A   Mostly Cloudy
4:50 PM 41.0 °F 37.1 °F 30.2 °F 65% 29.83 in 6.2 mi North 5.8 mph - N/A   Overcast
5:00 PM 40 °F - 31 °F 59% 29.87 in 7 mi North 6.7 mph - -   Overcast
5:20 PM 41.0 °F 36.4 °F 30.2 °F 65% 29.83 in 6.2 mi NNE 6.9 mph - N/A   Overcast
5:50 PM 41.0 °F 35.8 °F 32.0 °F 70% 29.80 in 6.2 mi NNE 8.1 mph - N/A   Mostly Cloudy
6:20 PM 41.0 °F 34.7 °F 30.2 °F 65% 29.80 in 6.2 mi ENE 10.4 mph - N/A   Mostly Cloudy
6:50 PM 39.2 °F 32.5 °F 32.0 °F 75% 29.83 in 6.2 mi NE 10.4 mph - N/A   Mostly Cloudy
7:20 PM 39.2 °F 33.0 °F 30.2 °F 70% 29.83 in 6.2 mi NE 9.2 mph - N/A   Mostly Cloudy
7:50 PM 39.2 °F 33.6 °F 30.2 °F 70% 29.83 in 6.2 mi NE 8.1 mph - N/A   Mostly Cloudy
8:00 PM 39 °F - 30 °F 61% 29.87 in 7 mi NE 8.9 mph - -   Scattered Clouds
8:20 PM 39.2 °F 33.6 °F 30.2 °F 70% 29.83 in 6.2 mi NE 8.1 mph - N/A   Mostly Cloudy
8:50 PM 37.4 °F 32.1 °F 30.2 °F 75% 29.83 in 6.2 mi NE 6.9 mph - N/A   Mostly Cloudy
9:20 PM 37.4 °F 32.1 °F 28.4 °F 70% 29.83 in 6.2 mi NE 6.9 mph - N/A   Mostly Cloudy
9:50 PM 37.4 °F 31.4 °F 28.4 °F 70% 29.83 in 6.2 mi NE 8.1 mph - N/A   Mostly Cloudy
10:20 PM 37.4 °F 30.8 °F 28.4 °F 70% 29.83 in 6.2 mi NE 9.2 mph - N/A   Mostly Cloudy
10:50 PM 35.6 °F 29.2 °F 28.4 °F 75% 29.83 in 6.2 mi NE 8.1 mph - N/A   Mostly Cloudy
11:00 PM 36 °F - 28 °F 63% 29.89 in 6 mi NE 8.9 mph - -   Scattered Clouds
11:20 PM 33.8 °F 27.7 °F 28.4 °F 81% 29.83 in 6.2 mi ENE 6.9 mph - N/A   Mostly Cloudy
11:50 PM 35.6 °F - 28.4 °F 75% 29.83 in 6.2 mi Variable 1.2 mph - N/A   Mostly Cloudy